This is the latest recevied weather packets stored in our database for station/object NZ3C. If no packets are shown the sender has not sent any weather packets the latest 10 day(s).
| Time | Temp. | Humidity | Pressure | Rain* | Wind** | Luminosity | Snow |
|---|---|---|---|---|---|---|---|
| 1777622096 | 12.22° C | 66% | 1015.3 hPa | 0 mm | - | 0 W/m² | - |
| 1777621792 | 12.78° C | 66% | 1015.2 hPa | 0 mm | - | 0 W/m² | - |
| 1777621489 | 12.78° C | 66% | 1015.1 hPa | 0 mm | - | 0 W/m² | - |
| 1777621185 | 12.78° C | 67% | 1015.1 hPa | 0 mm | - | 0 W/m² | - |
| 1777620881 | 12.22° C | 67% | 1015.2 hPa | 0 mm | - | 0 W/m² | - |
| 1777620577 | 12.22° C | 70% | 1015 hPa | 0 mm | - | 0 W/m² | - |
| 1777620274 | 12.22° C | 69% | 1015 hPa | 0 mm | - | 0 W/m² | - |
| 1777619971 | 12.22° C | 70% | 1015.3 hPa | 0 mm | - | 0 W/m² | - |
| 1777619667 | 12.22° C | 70% | 1015.1 hPa | 0 mm | - | 0 W/m² | - |
| 1777619362 | 12.22° C | 72% | 1015 hPa | 0 mm | - | 0 W/m² | - |
| 1777619062 | 11.67° C | 73% | 1015 hPa | 0 mm | - | 0 W/m² | - |
| 1777618762 | 11.67° C | 78% | 1015.1 hPa | 0 mm | - | 0 W/m² | - |
| 1777618457 | 11.11° C | 80% | 1014.9 hPa | 0 mm | - | 0 W/m² | - |
| 1777618154 | 10.56° C | 89% | 1014.8 hPa | 0 mm | - | 0 W/m² | - |
| 1777617851 | 10° C | 93% | 1014.8 hPa | 0 mm | - | 0 W/m² | - |
| 1777617550 | 10° C | 94% | 1014.7 hPa | 0 mm | - | 0 W/m² | - |
| 1777617248 | 10.56° C | 95% | 1014.9 hPa | 0 mm | - | 0 W/m² | - |
| 1777616945 | 10.56° C | 95% | 1015 hPa | 0 mm | - | 0 W/m² | - |
| 1777616640 | 10° C | 95% | 1015 hPa | 0 mm | - | 0 W/m² | - |
| 1777616335 | 10° C | 96% | 1015.1 hPa | 0 mm | - | 0 W/m² | - |
| 1777616033 | 10° C | 96% | 1014.7 hPa | 0 mm | - | 0 W/m² | - |
| 1777615729 | 10° C | 96% | 1014.9 hPa | 0 mm | - | 0 W/m² | - |
| 1777615426 | 10.56° C | 96% | 1014.8 hPa | 0 mm | - | 0 W/m² | - |
| 1777615125 | 10.56° C | 96% | 1014.5 hPa | 0 mm | - | 0 W/m² | - |
| 1777614821 | 10.56° C | 96% | 1014.4 hPa | 0 mm | - | 0 W/m² | - |
* Rain latest hour (hover to see other rain measurements)
** Current wind speed in m/s (hover to see current wind gust speed)